Roros Lufthavn, Norway

6:26 PM CET on December 05, 2019 (GMT +0100)
Roros

Weather History for ENRO - October, 2019

Change the Weather History Date:

Sunday, October 6, 2019

  Actual Average Record
Temperature  
Mean Temperature 22 °F -  
Max Temperature 37 °F 44 °F 53 °F (2000)
Min Temperature 8 °F 33 °F 8 °F (2019)
Degree Days  
Heating Degree Days 42    
Moisture  
Dew Point 17 °F    
Average Humidity 82    
Maximum Humidity 100    
Minimum Humidity 56    
Precipitation  
Precipitation 0.00 in - - ()
Sea Level Pressure  
Sea Level Pressure 30.22 in    
Wind  
Wind Speed 3 mph ()    
Max Wind Speed 8 mph    
Max Gust Speed -    
Visibility 6.2 miles    
Events      
Averages and records for this station are not official NWS values.
T = Trace of Precipitation, MM = Missing Value Source: Averaged Metar Reports

Daily Weather History Graph

Daily Weather History Graph

Search for Another Location

Airport or City:

Astronomy

Oct. 06, 2019 Rise Set
Actual Time 7:34 AM CEST 6:29 PM CEST
Civil Twilight 6:49 AM CEST 7:14 PM CEST
Nautical Twilight 5:56 AM CEST 8:07 PM CEST
Astronomical Twilight 5:01 AM CEST 9:02 PM CEST
Moon 5:28 PM CEST (10/6) 10:42 PM CEST (10/6)
Length of Visible Light 12h 25m
Length of Day
10h 55m
First Quarter, 57% of the Moon is Illuminated
Oct 6
First Quarter
Oct 13
Full
Oct 21
Last Quarter
Oct 28
New
Nov 4
First Quarter

Hourly Weather History & Observations

Time (CEST) Temp. Windchill Dew Point Humidity Pressure Visibility Wind Dir Wind Speed Gust Speed Precip Events Conditions
12:20 AM 14.0 °F - 12.2 °F 93% 30.27 in 6.2 mi Variable 1.2 mph - N/A   Unknown
12:50 AM 14.0 °F - 12.2 °F 93% 30.24 in 6.2 mi Variable 2.3 mph - N/A   Unknown
1:50 AM 12.2 °F - 12.2 °F 100% 30.27 in 6.2 mi Variable 2.3 mph - N/A   Unknown
2:20 AM 12.2 °F - 12.2 °F 100% 30.24 in 6.2 mi Variable 2.3 mph - N/A   Unknown
3:20 AM 12.2 °F - 10.4 °F 92% 30.24 in 6.2 mi Variable 2.3 mph - N/A   Unknown
3:50 AM 12.2 °F - 10.4 °F 92% 30.24 in 6.2 mi Variable 2.3 mph - N/A   Unknown
4:20 AM 10.4 °F - 10.4 °F 100% 30.24 in 6.2 mi Variable 1.2 mph - N/A   Unknown
4:50 AM 10.4 °F - 8.6 °F 92% 30.24 in 6.2 mi Variable 1.2 mph - N/A   Unknown
5:50 AM 8.6 °F - 6.8 °F 92% 30.24 in 6.2 mi Variable 2.3 mph - N/A   Unknown
6:20 AM 8.6 °F - 8.6 °F 100% 30.24 in 6.2 mi Variable 1.2 mph - N/A   Unknown
6:50 AM 8.6 °F - 6.8 °F 92% 30.24 in 6.2 mi NW 2.3 mph - N/A   Unknown
7:20 AM 8.6 °F - 8.6 °F 100% 30.24 in 6.2 mi Variable 1.2 mph - N/A   Partly Cloudy
7:50 AM 8.6 °F 2.0 °F 6.8 °F 92% 30.24 in 6.2 mi SW 3.5 mph - N/A   Unknown
8:20 AM 10.4 °F 2.2 °F 8.6 °F 92% 30.24 in 6.2 mi SSW 4.6 mph - N/A   Unknown
8:50 AM 12.2 °F 6.1 °F 10.4 °F 92% 30.24 in 6.2 mi South 3.5 mph - N/A   Unknown
9:20 AM 14.0 °F - 12.2 °F 93% 30.24 in 6.2 mi Variable 2.3 mph - N/A   Unknown
9:50 AM 15.8 °F 10.2 °F 14.0 °F 93% 30.24 in 6.2 mi SSW 3.5 mph - N/A   Unknown
10:20 AM 19.4 °F - 15.8 °F 86% 30.24 in 6.2 mi Variable 2.3 mph - N/A   Unknown
10:50 AM 19.4 °F 12.8 °F 17.6 °F 93% 30.24 in 6.2 mi SW 4.6 mph - N/A   Unknown
11:20 AM 23.0 °F 18.4 °F 21.2 °F 93% 30.24 in 6.2 mi SW 3.5 mph - N/A   Unknown
11:50 AM 26.6 °F 22.6 °F 21.2 °F 80% 30.24 in 6.2 mi Variable 3.5 mph - N/A   Unknown
12:20 PM 28.4 °F 23.3 °F 21.2 °F 74% 30.21 in 6.2 mi South 4.6 mph - N/A   Unknown
1:20 PM 32.0 °F 28.7 °F 23.0 °F 69% 30.21 in 6.2 mi South 3.5 mph - N/A   Unknown
1:50 PM 32.0 °F 27.5 °F 23.0 °F 69% 30.21 in 6.2 mi SSW 4.6 mph - N/A   Unknown
2:20 PM 33.8 °F 30.8 °F 23.0 °F 65% 30.21 in 6.2 mi South 3.5 mph - N/A   Unknown
2:50 PM 35.6 °F - 23.0 °F 60% 30.21 in - Variable 2.3 mph - N/A   Clear
3:20 PM 35.6 °F - 23.0 °F 60% 30.18 in - Variable 2.3 mph - N/A   Clear
3:50 PM 37.4 °F 34.9 °F 23.0 °F 56% 30.18 in - NNE 3.5 mph - N/A   Clear
4:20 PM 35.6 °F 31.7 °F 23.0 °F 60% 30.18 in - WNW 4.6 mph - N/A   Clear
4:50 PM 35.6 °F 32.8 °F 23.0 °F 60% 30.18 in - NNW 3.5 mph - N/A   Clear
5:20 PM 37.4 °F 34.9 °F 23.0 °F 56% 30.18 in - NW 3.5 mph - N/A   Clear
5:50 PM 35.6 °F 31.7 °F 23.0 °F 60% 30.18 in - NW 4.6 mph - N/A   Clear
6:20 PM 32.0 °F - 23.0 °F 69% 30.18 in - Variable 2.3 mph - N/A   Clear
6:50 PM 30.2 °F - 23.0 °F 75% 30.18 in - Variable 1.2 mph - N/A   Clear
7:20 PM 30.2 °F - 23.0 °F 75% 30.18 in - Variable 2.3 mph - N/A   Clear
7:50 PM 28.4 °F - 24.8 °F 86% 30.18 in - Variable 2.3 mph - N/A   Clear
9:20 PM 28.4 °F 23.3 °F 21.2 °F 74% 30.18 in 6.2 mi NW 4.6 mph - N/A   Unknown
9:50 PM 28.4 °F 20.4 °F 21.2 °F 74% 30.18 in 6.2 mi NNW 8.1 mph - N/A   Unknown
10:20 PM 28.4 °F 21.2 °F 23.0 °F 80% 30.18 in 6.2 mi NNW 6.9 mph - N/A   Mostly Cloudy
10:50 PM 30.2 °F 24.3 °F 24.8 °F 80% 30.18 in 6.2 mi West 5.8 mph - N/A   Overcast
11:20 PM 30.2 °F 25.4 °F 24.8 °F 80% 30.18 in 6.2 mi SW 4.6 mph - N/A   Overcast
11:50 PM 28.4 °F 20.4 °F 24.8 °F 86% 30.18 in 6.2 mi SW 8.1 mph - N/A   Overcast